Tracking 19562 objects as of 23-Mar-2019
HD Live streaming from Space Station
objects crossing your sky now

COSMOS 876

Track COSMOS 876 now!
10-day predictions
COSMOS 876 is classified as:


NORAD ID: 9593
Int'l Code: 1976-118F
Perigee: 1,471.4 km
Apogee: 1,545.2 km
Inclination: 74.0 °
Period: 116.0 minutes
Semi major axis: 7879 km
RCS: 0.686 m2 (medium)
Launch date: December 7, 1976
Source: Commonwealth of Independent States (former USSR) (CIS)
Launch site: PLESETSK MISSILE AND SPACE COMPLEX (PKMTR)
aabbcc
Your satellite tracking list
Your tracking list is empty




NASA's NSSDC Master Catalog

Two Line Element Set (TLE):
1  9593U 76118F   19081.78676559 -.00000025 +00000-0 -73124-4 0  9991
2  9593 074.0308 211.6421 0046849 108.4691 002.0627 12.41289305916173
Source of the keplerian elements: AFSPC